Tracking 18030 objects as of 28-March-2017
HD Live streaming from Space Station
objects crossing your sky now

SL-19 R/B

Track SL-19 R/B now!
10-day predictions


NORAD ID: 36589
Int'l Code: 2010-023B
Perigee: 1,048.8 km
Apogee: 1,048.8 km
Inclination: 100.5 °
Period: 106.0 minutes
Semi major axis: 7419 km
RCS: 6.505 m2 (large)
Launch date: June 2, 2010
Source: Commonwealth of Independent States (former USSR) (CIS)
Launch site: PLESETSK MISSILE AND SPACE COMPLEX (PKMTR)

Note: This is a ROCKET BODY
Your satellite tracking list
Your tracking list is empty





NASA's NSSDC Master Catalog

Two Line Element Set (TLE):
1 36589U 10023B   17086.76474796 -.00000038 +00000-0 +16638-4 0  9999
2 36589 100.5301 127.2481 0224794 281.7945 186.4936 13.58365413338293
Source of the keplerian elements: AFSPC